User: anonymous   Login
Location: Newark
(41.9000°N, 12.4833°E)
Time: 22:40:34
(UTC+00:00)
Language:

CUTE 1.7 + AOD 2 - Orbit

View from above orbital plane
View from above orbital plane
View from above satellite
View from above satellite

Ground track
Ground track

The orbit data is extracted from the following two-line orbital elements,

1 32785U 08021C   19140.17058597  .00000180  00000-0  25009-4 0  9992
2 32785  97.5494 141.2781 0013241   8.1667 351.9764 14.88298058599290
Epoch (UTC): 20 May 2019 04:05:38
Eccentricity: 0.0013241
inclination: 97.5494°
perigee height: 594 km
apogee height: 612 km
right ascension of ascending node: 141.2781°
argument of perigee: 8.1667°
revolutions per day: 14.88298058
mean anomaly at epoch: 351.9764°
orbit number at epoch: 59929

The dashed part of the orbit path shows where the satellite is in the earth's shadow,  

DLR